Location: El Águila
(10.4167°N, 66.7167°W)
Time: 05:49:38
(UTC+00:00)

Cosmos 2278 - Pass Details

Date: 02 October 2022
Orbit: 841 x 851 km, 71.1° (Epoch: 04 December)

Event Time Altitude Azimuth Distance (km) Brightness Sun altitude
Rises 22:25:35 0° 201° (SSW) 3,404 7.2 -3.0°
Reaches altitude 10° 22:28:02 10° 203° (SSW) 2,468 6.5 -3.6°
Maximum altitude 22:33:40 69° 286° (WNW) 900 4.2 -5.0°
Drops below altitude 10° 22:39:18 10° 9° (N) 2,460 6.0 -6.4°
Sets 22:41:45 0° 12° (NNE) 3,393 6.7 -7.0°
